Time,TemperatureF,DewpointF,PressureIn,WindDirection,WindDirectionDegrees,WindSpeedMPH,WindSpeedGustMPH,Humidity,HourlyPrecipIn,Conditions,Clouds,dailyrainin,SoftwareType,DateUTC
2013-01-18 07:30:00,39.6,36.6,29.36,NW,310,5.0,8.0,89,0.00,CLR,,0.04,WeatherDisplay:10.37,2013-01-18 06:30:00,
2013-01-18 07:40:00,39.5,36.5,29.37,NW,309,6.0,12.0,89,0.00,CLR,,0.04,WeatherDisplay:10.37,2013-01-18 06:40:00,
2013-01-18 07:50:00,39.5,36.8,29.37,WNW,299,5.0,12.0,90,0.00,CLR,,0.04,WeatherDisplay:10.37,2013-01-18 06:50:00,
2013-01-18 07:59:00,39.5,36.5,29.37,WNW,296,5.0,9.0,89,0.00,CLR,,0.04,WeatherDisplay:10.37,2013-01-18 06:59:00,
2013-01-18 08:10:00,39.6,36.6,29.37,WNW,300,6.0,9.0,89,0.00,CLR,,0.04,WeatherDisplay:10.37,2013-01-18 07:10:00,
2013-01-18 08:20:00,40.0,37.0,29.38,NNW,333,5.0,13.0,89,0.00,CLR,,0.04,WeatherDisplay:10.37,2013-01-18 07:20:00,
2013-01-18 08:30:00,40.1,36.8,29.38,NW,325,6.0,12.0,88,0.00,CLR,,0.04,WeatherDisplay:10.37,2013-01-18 07:30:00,
2013-01-18 08:40:00,40.2,36.6,29.39,North,351,9.0,18.0,87,0.00,CLR,,0.04,WeatherDisplay:10.37,2013-01-18 07:40:00,
2013-01-18 08:50:00,40.1,36.0,29.40,NNW,334,9.0,13.0,85,0.00,CLR,,0.04,WeatherDisplay:10.37,2013-01-18 07:50:00,
2013-01-18 09:00:00,40.3,35.8,29.40,North,349,10.0,15.0,84,0.00,CLR,,0.04,WeatherDisplay:10.37,2013-01-18 08:00:00,
2013-01-18 09:10:00,40.5,36.3,29.40,NNW,346,5.0,12.0,85,0.00,CLR,,0.04,WeatherDisplay:10.37,2013-01-18 08:10:00,
2013-01-18 09:20:00,40.4,36.0,29.41,NNW,334,7.0,8.0,84,0.00,CLR,,0.04,WeatherDisplay:10.37,2013-01-18 08:20:00,
2013-01-18 09:30:00,40.5,36.3,29.41,North,9,5.0,7.0,85,0.00,CLR,,0.04,WeatherDisplay:10.37,2013-01-18 08:30:00,
2013-01-18 09:40:00,40.4,35.9,29.42,NNW,343,2.0,7.0,84,0.00,CLR,,0.04,WeatherDisplay:10.37,2013-01-18 08:40:00,
2013-01-18 09:50:00,40.7,36.3,29.42,North,358,3.0,6.0,84,0.00,CLR,,0.04,WeatherDisplay:10.37,2013-01-18 08:50:00,
2013-01-18 10:00:00,41.3,36.2,29.42,NW,313,1.0,8.0,82,0.00,CLR,,0.04,WeatherDisplay:10.37,2013-01-18 09:00:00,
2013-01-18 10:10:00,41.8,36.1,29.42,NNW,334,7.0,14.0,80,0.00,CLR,,0.04,WeatherDisplay:10.37,2013-01-18 09:10:00,
2013-01-18 10:20:00,42.2,36.2,29.43,NW,315,5.0,12.0,79,0.00,CLR,,0.04,WeatherDisplay:10.37,2013-01-18 09:20:00,
2013-01-18 10:30:00,42.4,36.7,29.43,NNW,343,6.0,10.0,80,0.00,CLR,,0.04,WeatherDisplay:10.37,2013-01-18 09:30:00,
2013-01-18 10:40:00,42.5,36.4,29.44,NW,312,3.0,12.0,79,0.00,CLR,,0.04,WeatherDisplay:10.37,2013-01-18 09:40:00,
2013-01-18 10:50:00,42.3,36.6,29.44,NW,316,6.0,16.0,80,0.00,CLR,,0.04,WeatherDisplay:10.37,2013-01-18 09:50:00,
2013-01-18 11:00:00,42.2,36.8,29.44,NW,305,6.0,13.0,81,0.00,CLR,,0.04,WeatherDisplay:10.37,2013-01-18 10:00:00,
2013-01-18 11:20:00,42.2,37.1,29.44,NW,323,3.0,7.0,82,0.00,CLR,,0.04,WeatherDisplay:10.37,2013-01-18 10:20:00,
2013-01-18 11:30:00,42.4,37.3,29.44,NW,315,5.0,8.0,82,0.00,CLR,,0.04,WeatherDisplay:10.37,2013-01-18 10:30:00,
2013-01-18 11:40:00,42.8,37.7,29.44,WNW,293,3.0,6.0,82,0.00,CLR,,0.04,WeatherDisplay:10.37,2013-01-18 10:40:00,
2013-01-18 11:50:00,43.1,38.3,29.44,NW,311,3.0,7.0,83,0.00,CLR,,0.04,WeatherDisplay:10.37,2013-01-18 10:50:00,
2013-01-18 12:00:00,43.5,38.7,29.45,NW,326,6.0,8.0,83,0.00,CLR,,0.04,WeatherDisplay:10.37,2013-01-18 11:00:00,
2013-01-18 12:10:00,43.6,38.7,29.45,NW,317,2.0,10.0,83,0.00,CLR,,0.04,WeatherDisplay:10.37,2013-01-18 11:10:00,
2013-01-18 12:20:00,43.8,38.7,29.45,NW,310,7.0,10.0,82,0.00,CLR,,0.04,WeatherDisplay:10.37,2013-01-18 11:20:00,
2013-01-18 12:30:00,44.0,38.9,29.45,NW,320,5.0,9.0,82,0.00,CLR,,0.04,WeatherDisplay:10.37,2013-01-18 11:30:00,
2013-01-18 12:40:00,44.2,39.0,29.45,NW,318,2.0,9.0,82,0.00,CLR,,0.04,WeatherDisplay:10.37,2013-01-18 11:40:00,
2013-01-18 12:50:00,44.2,39.1,29.45,NW,306,2.0,9.0,82,0.00,CLR,,0.04,WeatherDisplay:10.37,2013-01-18 11:50:00,
2013-01-18 13:00:00,44.4,39.2,29.45,NW,311,3.0,9.0,82,0.00,CLR,,0.04,WeatherDisplay:10.37,2013-01-18 12:00:00,
2013-01-18 13:10:00,44.5,39.0,29.46,NW,323,7.0,10.0,81,0.00,CLR,,0.04,WeatherDisplay:10.37,2013-01-18 12:10:00,
2013-01-18 13:20:00,44.5,39.0,29.46,NW,309,7.0,16.0,81,0.00,CLR,,0.04,WeatherDisplay:10.37,2013-01-18 12:20:00,
2013-01-18 13:30:00,44.9,38.8,29.46,NW,323,8.0,16.0,79,0.00,CLR,,0.04,WeatherDisplay:10.37,2013-01-18 12:30:00,
2013-01-18 13:40:00,45.0,38.6,29.46,NW,324,9.0,16.0,78,0.00,CLR,,0.04,WeatherDisplay:10.37,2013-01-18 12:40:00,
2013-01-18 13:50:00,45.2,38.4,29.46,NW,324,12.0,21.0,77,0.00,CLR,,0.04,WeatherDisplay:10.37,2013-01-18 12:50:00,
2013-01-18 14:00:00,45.1,38.0,29.46,NW,319,10.0,18.0,76,0.00,CLR,,0.04,WeatherDisplay:10.37,2013-01-18 13:00:00,
2013-01-18 14:10:00,45.2,38.4,29.46,WNW,297,7.0,14.0,77,0.00,CLR,,0.04,WeatherDisplay:10.37,2013-01-18 13:10:00,
2013-01-18 14:20:00,45.5,38.7,29.47,NW,307,6.0,14.0,77,0.00,CLR,,0.04,WeatherDisplay:10.37,2013-01-18 13:20:00,
2013-01-18 14:30:00,45.6,38.5,29.47,NNW,333,9.0,20.0,76,0.00,CLR,,0.04,WeatherDisplay:10.37,2013-01-18 13:30:00,
2013-01-18 14:40:00,45.5,38.4,29.47,NW,324,8.0,16.0,76,0.00,CLR,,0.04,WeatherDisplay:10.37,2013-01-18 13:40:00,
2013-01-18 14:50:00,45.6,38.5,29.47,NW,326,8.0,12.0,76,0.00,CLR,,0.04,WeatherDisplay:10.37,2013-01-18 13:50:00,
2013-01-18 15:00:00,45.9,38.4,29.47,NNW,327,9.0,15.0,75,0.00,CLR,,0.04,WeatherDisplay:10.37,2013-01-18 14:00:00,
2013-01-18 15:10:00,45.9,38.4,29.48,WNW,292,8.0,14.0,75,0.00,CLR,,0.04,WeatherDisplay:10.37,2013-01-18 14:10:00,
2013-01-18 15:20:00,45.7,38.2,29.47,NW,316,7.0,13.0,75,0.00,CLR,,0.04,WeatherDisplay:10.37,2013-01-18 14:20:00,
2013-01-18 15:30:00,45.8,38.3,29.48,NNW,336,8.0,16.0,75,0.00,CLR,,0.04,WeatherDisplay:10.37,2013-01-18 14:30:00,
2013-01-18 15:40:00,45.7,37.9,29.48,NW,313,7.0,16.0,74,0.00,CLR,,0.04,WeatherDisplay:10.37,2013-01-18 14:40:00,
2013-01-18 15:50:00,46.1,38.6,29.49,WNW,299,3.0,10.0,75,0.00,CLR,,0.04,WeatherDisplay:10.37,2013-01-18 14:50:00,
2013-01-18 16:00:00,46.4,38.9,29.49,NW,320,1.0,9.0,75,0.00,CLR,,0.04,WeatherDisplay:10.37,2013-01-18 15:00:00,
2013-01-18 16:10:00,46.1,38.6,29.49,NW,318,2.0,13.0,75,0.00,CLR,,0.04,WeatherDisplay:10.37,2013-01-18 15:10:00,
2013-01-18 16:20:00,46.0,38.2,29.50,NW,315,3.0,8.0,74,0.00,CLR,,0.04,WeatherDisplay:10.37,2013-01-18 15:20:00,
2013-01-18 16:30:00,46.1,38.6,29.50,NW,324,2.0,6.0,75,0.00,CLR,,0.04,WeatherDisplay:10.37,2013-01-18 15:30:00,
2013-01-18 16:40:00,45.9,38.4,29.51,North,358,5.0,8.0,75,0.00,CLR,,0.04,WeatherDisplay:10.37,2013-01-18 15:40:00,
2013-01-18 16:50:00,45.2,38.0,29.51,North,0,3.0,6.0,76,0.00,CLR,,0.04,WeatherDisplay:10.37,2013-01-18 15:50:00,
2013-01-18 17:00:00,44.8,38.0,29.52,NNW,348,3.0,6.0,77,0.00,CLR,,0.04,WeatherDisplay:10.37,2013-01-18 16:00:00,
2013-01-18 17:10:00,44.4,38.0,29.52,NNE,15,5.0,7.0,78,0.00,CLR,,0.04,WeatherDisplay:10.37,2013-01-18 16:10:00,
2013-01-18 17:20:00,44.3,37.9,29.53,NNE,17,2.0,6.0,78,0.00,CLR,,0.04,WeatherDisplay:10.37,2013-01-18 16:20:00,
2013-01-18 17:30:00,44.3,37.5,29.53,North,358,2.0,4.0,77,0.00,CLR,,0.04,WeatherDisplay:10.37,2013-01-18 16:30:00,
2013-01-18 17:40:00,44.3,37.9,29.54,North,5,1.0,3.0,78,0.00,CLR,,0.04,WeatherDisplay:10.37,2013-01-18 16:40:00,
2013-01-18 17:50:00,44.1,38.3,29.55,NNW,343,1.0,2.0,80,0.00,CLR,,0.04,WeatherDisplay:10.37,2013-01-18 16:50:00,
2013-01-18 18:00:00,43.7,38.2,29.55,NNW,329,1.0,3.0,81,0.00,CLR,,0.04,WeatherDisplay:10.37,2013-01-18 17:00:00,
2013-01-18 18:10:00,43.3,38.5,29.56,NW,310,2.0,3.0,83,0.00,CLR,,0.04,WeatherDisplay:10.37,2013-01-18 17:10:00,
2013-01-18 18:20:00,43.2,38.1,29.57,NNW,337,2.0,3.0,82,0.00,CLR,,0.04,WeatherDisplay:10.37,2013-01-18 17:20:00,
2013-01-18 18:30:00,43.3,38.2,29.57,NNW,333,2.0,3.0,82,0.00,CLR,,0.04,WeatherDisplay:10.37,2013-01-18 17:30:00,
2013-01-18 18:40:00,43.4,38.3,29.58,NW,318,3.0,5.0,82,0.00,CLR,,0.04,WeatherDisplay:10.37,2013-01-18 17:40:00,
2013-01-18 18:50:00,43.7,37.3,29.58,NW,309,3.0,6.0,78,0.00,CLR,,0.04,WeatherDisplay:10.37,2013-01-18 17:50:00,
2013-01-18 19:00:00,44.3,37.2,29.58,NW,307,5.0,7.0,76,0.00,CLR,,0.04,WeatherDisplay:10.37,2013-01-18 18:00:00,
2013-01-18 19:10:00,44.5,37.4,29.59,NW,310,2.0,5.0,76,0.00,CLR,,0.04,WeatherDisplay:10.37,2013-01-18 18:10:00,
2013-01-18 19:20:00,44.6,37.2,29.59,NW,308,3.0,5.0,75,0.00,CLR,,0.04,WeatherDisplay:10.37,2013-01-18 18:20:00,
2013-01-18 19:30:00,44.9,37.4,29.59,WNW,298,1.0,5.0,75,0.00,CLR,,0.04,WeatherDisplay:10.37,2013-01-18 18:30:00,
2013-01-18 19:40:00,44.9,37.4,29.58,NW,318,2.0,5.0,75,0.00,CLR,,0.04,WeatherDisplay:10.37,2013-01-18 18:40:00,
2013-01-18 19:50:00,44.8,37.4,29.59,West,279,3.0,5.0,75,0.00,CLR,,0.04,WeatherDisplay:10.37,2013-01-18 18:50:00,
2013-01-18 20:00:00,44.4,37.6,29.59,WNW,294,5.0,6.0,77,0.00,CLR,,0.04,WeatherDisplay:10.37,2013-01-18 19:00:00,
2013-01-18 20:10:00,44.2,37.8,29.59,WNW,296,2.0,8.0,78,0.00,CLR,,0.04,WeatherDisplay:10.37,2013-01-18 19:10:00,
2013-01-18 20:20:00,44.0,37.6,29.59,NNW,330,2.0,5.0,78,0.00,CLR,,0.04,WeatherDisplay:10.37,2013-01-18 19:20:00,
2013-01-18 20:30:00,43.7,38.0,29.60,NNW,346,2.0,4.0,80,0.00,CLR,,0.04,WeatherDisplay:10.37,2013-01-18 19:30:00,
2013-01-18 20:40:00,44.3,38.2,29.60,North,4,3.0,5.0,79,0.00,CLR,,0.04,WeatherDisplay:10.37,2013-01-18 19:40:00,
2013-01-18 20:50:00,44.1,38.0,29.60,North,9,2.0,6.0,79,0.00,CLR,,0.04,WeatherDisplay:10.37,2013-01-18 19:50:00,
2013-01-18 21:00:00,43.9,38.1,29.61,NNE,26,2.0,5.0,80,0.00,CLR,,0.04,WeatherDisplay:10.37,2013-01-18 20:00:00,
2013-01-18 21:10:00,44.3,38.5,29.61,NE,45,2.0,5.0,80,0.00,CLR,,0.04,WeatherDisplay:10.37,2013-01-18 20:10:00,
2013-01-18 21:20:00,44.1,38.0,29.61,East,85,1.0,4.0,79,0.00,CLR,,0.04,WeatherDisplay:10.37,2013-01-18 20:20:00,
2013-01-18 21:30:00,43.8,37.4,29.61,NE,49,3.0,7.0,78,0.00,CLR,,0.04,WeatherDisplay:10.37,2013-01-18 20:30:00,
2013-01-18 21:40:00,43.5,37.4,29.62,NE,34,5.0,9.0,79,0.00,CLR,,0.04,WeatherDisplay:10.37,2013-01-18 20:40:00,
2013-01-18 21:50:00,43.1,37.4,29.62,NE,44,3.0,9.0,80,0.00,CLR,,0.04,WeatherDisplay:10.37,2013-01-18 20:50:00,
2013-01-18 22:00:00,43.3,37.2,29.62,NE,54,5.0,8.0,79,0.00,CLR,,0.04,WeatherDisplay:10.37,2013-01-18 21:00:00,
2013-01-18 22:10:00,43.1,37.0,29.63,NE,38,2.0,6.0,79,0.00,CLR,,0.04,WeatherDisplay:10.37,2013-01-18 21:10:00,
2013-01-18 22:20:00,43.1,37.0,29.63,NE,48,3.0,7.0,79,0.00,CLR,,0.04,WeatherDisplay:10.37,2013-01-18 21:20:00,
2013-01-18 22:30:00,43.3,36.9,29.64,NE,46,2.0,6.0,78,0.00,CLR,,0.04,WeatherDisplay:10.37,2013-01-18 21:30:00,
2013-01-18 22:40:00,43.5,36.8,29.64,NE,44,2.0,5.0,77,0.00,CLR,,0.04,WeatherDisplay:10.37,2013-01-18 21:40:00,
2013-01-18 22:50:00,43.5,36.7,29.64,NNE,33,1.0,4.0,77,0.00,CLR,,0.04,WeatherDisplay:10.37,2013-01-18 21:50:00,
2013-01-18 23:00:00,43.5,36.8,29.64,NNE,24,5.0,5.0,77,0.00,CLR,,0.04,WeatherDisplay:10.37,2013-01-18 22:00:00,
2013-01-18 23:10:00,43.5,36.7,29.64,NNE,18,2.0,6.0,77,0.00,CLR,,0.04,WeatherDisplay:10.37,2013-01-18 22:10:00,
2013-01-18 23:20:00,43.5,36.8,29.64,NNE,18,3.0,5.0,77,0.00,CLR,,0.04,WeatherDisplay:10.37,2013-01-18 22:20:00,